Syracuse, NY

4:52 AM EST on November 15, 2019 (GMT -0500)
Syracuse Hancock International

Weather History for KSYR - September, 2019

Change the Weather History Date:

Friday, September 27, 2019

  Actual Average Record
Temperature  
Mean Temperature 60 °F 58 °F  
Max Temperature 73 °F 68 °F 91 °F (2017)
Min Temperature 48 °F 48 °F 30 °F (1965)
Degree Days  
Heating Degree Days 4 8  
Month to date heating degree days 57 114  
Since 1 July heating degree days 62 140  
Cooling Degree Days 0 1  
Month to date cooling degree days 36 52  
Year to date cooling degree days 604 565  
Growing Degree Days 10 (Base 50)    
Moisture  
Dew Point 48 °F    
Average Humidity 67    
Maximum Humidity 100    
Minimum Humidity 40    
Precipitation  
Precipitation 0.00 in 0.13 in 1.92 in (1985)
Month to date precipitation 3.16 3.32  
Year to date precipitation 33.80 27.91  
Snow  
Snow 0.00 in 0.00 in T in (1951)
Month to date snowfall T 0.0  
Since 1 July snowfall T 0.0  
Since 1 September snowfall T 0.0  
Snow Depth 0.00 in    
Sea Level Pressure  
Sea Level Pressure 30.03 in    
Wind  
Wind Speed 3 mph ()    
Max Wind Speed 15 mph    
Max Gust Speed 20 mph    
Visibility 9.6 miles    
Events Fog    
T = Trace of Precipitation, MM = Missing Value Source: Averaged Metar Reports

Daily Weather History Graph

Daily Weather History Graph

Search for Another Location

Airport or City:

Astronomy

Sep. 27, 2019 Rise Set
Actual Time 6:57 AM EDT 6:53 PM EDT
Civil Twilight 6:28 AM EDT 7:21 PM EDT
Nautical Twilight 5:55 AM EDT 7:54 PM EDT
Astronomical Twilight 5:21 AM EDT 8:28 PM EDT
Moon 5:10 AM EDT (9/27) 6:45 PM EDT (9/27)
Length of Visible Light 12h 52m
Length of Day
11h 56m
Waning Crescent, 2% of the Moon is Illuminated
Sep 27
Waning Crescent
Sep 28
New
Oct 5
First Quarter
Oct 13
Full
Oct 21
Last Quarter

Hourly Weather History & Observations

Time (EDT) Temp. Dew Point Humidity Pressure Visibility Wind Dir Wind Speed Gust Speed Precip Events Conditions
12:54 AM 52.0 °F 48.9 °F 89% 29.99 in 10.0 mi WSW 4.6 mph - N/A   Scattered Clouds
1:54 AM 51.1 °F 48.9 °F 92% 30.01 in 7.0 mi Calm Calm - N/A Fog Patches of Fog
2:54 AM 51.1 °F 48.9 °F 92% 30.01 in 10.0 mi Calm Calm - N/A Fog Patches of Fog
3:54 AM 50.0 °F 48.0 °F 93% 30.01 in 5.0 mi Calm Calm - N/A   Partly Cloudy
4:37 AM 50.0 °F 48.0 °F 93% 30.03 in 10.0 mi SE 3.5 mph - N/A Fog Patches of Fog
4:54 AM 48.9 °F 48.0 °F 97% 30.02 in 9.0 mi Calm Calm - N/A Fog Patches of Fog
5:54 AM 48.9 °F 46.9 °F 93% 30.06 in 10.0 mi SE 3.5 mph - N/A   Scattered Clouds
6:54 AM 48.9 °F 46.9 °F 93% 30.07 in 10.0 mi SE 4.6 mph - N/A   Scattered Clouds
7:54 AM 50.0 °F 48.0 °F 93% 30.09 in 10.0 mi East 3.5 mph - N/A   Scattered Clouds
8:54 AM 55.0 °F 51.1 °F 86% 30.10 in 10.0 mi Calm Calm - N/A   Scattered Clouds
9:54 AM 60.1 °F 52.0 °F 75% 30.10 in 10.0 mi Calm Calm - N/A   Scattered Clouds
10:54 AM 64.9 °F 50.0 °F 58% 30.11 in 10.0 mi South 4.6 mph - N/A   Scattered Clouds
11:54 AM 68.0 °F 46.0 °F 45% 30.11 in 10.0 mi SSW 10.4 mph - N/A   Scattered Clouds
12:54 PM 69.1 °F 45.0 °F 42% 30.08 in 10.0 mi SSW 5.8 mph - N/A   Partly Cloudy
1:54 PM 70.0 °F 45.0 °F 41% 30.05 in 10.0 mi SE 5.8 mph - N/A   Partly Cloudy
2:54 PM 72.0 °F 46.0 °F 40% 30.03 in 10.0 mi SSW 8.1 mph - N/A   Partly Cloudy
3:54 PM 72.0 °F 46.0 °F 40% 30.02 in 10.0 mi SSW 9.2 mph - N/A   Scattered Clouds
4:54 PM 72.0 °F 46.0 °F 40% 29.99 in 10.0 mi SSE 10.4 mph - N/A   Mostly Cloudy
5:54 PM 71.1 °F 46.0 °F 41% 29.98 in 10.0 mi SSE 10.4 mph - N/A   Mostly Cloudy
6:54 PM 66.9 °F 46.9 °F 49% 29.98 in 10.0 mi SSE 6.9 mph - N/A   Mostly Cloudy
7:54 PM 62.1 °F 48.9 °F 62% 29.99 in 10.0 mi ESE 5.8 mph - N/A   Mostly Cloudy
8:54 PM 62.1 °F 48.0 °F 60% 29.99 in 10.0 mi ESE 4.6 mph - N/A   Mostly Cloudy
9:54 PM 64.9 °F 48.0 °F 54% 29.99 in 10.0 mi SE 4.6 mph - N/A   Mostly Cloudy
10:54 PM 66.0 °F 48.9 °F 54% 29.98 in 10.0 mi SE 5.8 mph - N/A   Scattered Clouds
11:54 PM 69.1 °F 50.0 °F 51% 29.94 in 10.0 mi SSE 6.9 mph - N/A   Scattered Clouds